BeliefSat-0 (58695 NORAD) Tracking and Keplerian Element Data

This shows tracking and keplerian element data for the satellite.

Feedback or suggestion? Click here.




ElementValue
Catalog58695
NameBeliefSat-0
Epoch Orbit56
Epoch Day4.74596408
Epoch Year2024
RAAN72.7054
Inclination9.6657
Eccentricity0.0007217
Argument of Perigee17.8593
Mean Anonmoly342.1874
Mean Motion15.74486494
Decay Rate0.00097489
L11 58695U 24001B 24004.74596408 .00097489 00000-0 61795-3 0 9991
L22 58695 9.6657 72.7054 0007217 17.8593 342.1874 15.74486494 565



Live tracking and technical data element details for BeliefSat-0 (NORAD 58695). BeliefSat-0 can be tracked NOW for your location showing map with azimuth and elevation plus other details from your city location.







IsCatalogInMostPopularTable: catalog: 58695, numindb: 70
Update: records affected: 1



GetName: 58695 BeliefSat-0

Hit Count: updated at: Thu, 23 Jan 2025 15:16:58 GMT